Weather History for KSBN - October, 2012

Change the Weather History Date:

Tuesday, October 23, 2012

  Actual Average Record
Temperature  
Mean Temperature 64 °F 50 °F  
Max Temperature 68 °F 59 °F 83 °F (1963)
Min Temperature 59 °F 41 °F 25 °F (1895)
Degree Days  
Heating Degree Days 1 15  
Month to date heating degree days 300 273  
Since 1 July heating degree days 443 407  
Cooling Degree Days 0 0  
Month to date cooling degree days 2 8  
Year to date cooling degree days 1110 772  
Growing Degree Days 14 (Base 50)    
Moisture  
Dew Point 58 °F    
Average Humidity 81    
Maximum Humidity 90    
Minimum Humidity 72    
Precipitation  
Precipitation 0.01 in 0.10 in 2.47 in (1951)
Month to date precipitation 3.71 2.48  
Year to date precipitation 30.32 31.28  
Snow  
Snow 0.00 in 0.00 in 2.40 in (1962)
Month to date snowfall 0.0 0.2  
Since 1 July snowfall 0.0 0.2  
Since 1 September snowfall 0.2  
Snow Depth 0.00 in    
Sea Level Pressure  
Sea Level Pressure 29.95 in    
Wind  
Wind Speed 8 mph (SSW)    
Max Wind Speed 23 mph    
Max Gust Speed 28 mph    
Visibility 10 miles    
Events Rain , Thunderstorm    
T = Trace of Precipitation, MM = Missing Value Source: NWS Daily Summary

Daily Weather History Graph

Daily Weather History Graph

Search for Another Location

Airport or City:

Trip Planner

Search our weather history database for the weather conditions in past years. The results will help you decide how hot, cold, wet, or windy it might be!

Date:

Astronomy

Oct. 23, 2012 Rise Set
Actual Time 8:07 AM EDT 6:51 PM EDT
Civil Twilight 7:38 AM EDT 7:19 PM EDT
Nautical Twilight 7:06 AM EDT 7:51 PM EDT
Astronomical Twilight 6:34 AM EDT 8:24 PM EDT
Moon 3:38 PM EDT (10/23) 1:53 AM EDT (10/23)
Length of Visible Light 11h 40m
Length of Day
10h 43m
Waxing Gibbous, 66% of the Moon is Illuminated
Oct 23
Waxing Gibbous
Oct 29
Full
Nov 6
Last Quarter
Nov 13
New
Nov 20
First Quarter

Hourly Weather History & Observations

Time (EDT) Temp. Dew Point Humidity Pressure Visibility Wind Dir Wind Speed Gust Speed Precip Events Conditions
12:19 AM 66.2 °F 57.2 °F 73% 29.94 in 10.0 mi NNW 9.2 mph - 0.00 in Thunderstorm Thunderstorm
12:34 AM 64.4 °F 59.0 °F 83% 29.95 in 10.0 mi NW 8.1 mph - 0.00 in   Overcast
12:54 AM 64.0 °F 59.0 °F 84% 29.95 in 9.0 mi WNW 5.8 mph - 0.00 in Rain Light Rain
1:54 AM 62.1 °F 59.0 °F 90% 29.95 in 10.0 mi Calm Calm - 0.01 in   Overcast
2:54 AM 62.1 °F 57.9 °F 86% 29.93 in 10.0 mi SSW 8.1 mph - N/A   Mostly Cloudy
3:01 AM 62.6 °F 57.2 °F 82% 29.93 in 10.0 mi SSW 8.1 mph - N/A   Mostly Cloudy
3:54 AM 63.0 °F 57.9 °F 84% 29.91 in 10.0 mi SSW 9.2 mph - N/A   Mostly Cloudy
4:44 AM 62.6 °F 57.2 °F 82% 29.91 in 10.0 mi SSW 8.1 mph - N/A   Mostly Cloudy
4:54 AM 63.0 °F 57.0 °F 81% 29.91 in 10.0 mi SW 10.4 mph - N/A   Mostly Cloudy
5:32 AM 62.6 °F 55.4 °F 77% 29.92 in 10.0 mi SSW 6.9 mph - N/A   Mostly Cloudy
5:54 AM 63.0 °F 55.0 °F 75% 29.92 in 10.0 mi SW 6.9 mph - N/A   Overcast
6:54 AM 62.1 °F 55.0 °F 78% 29.93 in 10.0 mi SSW 4.6 mph - N/A   Overcast
7:54 AM 59.0 °F 55.0 °F 87% 29.92 in 10.0 mi South 4.6 mph - N/A   Overcast
8:54 AM 62.1 °F 55.0 °F 78% 29.96 in 10.0 mi SSW 6.9 mph - N/A   Overcast
9:54 AM 63.0 °F 54.0 °F 72% 29.98 in 10.0 mi SSW 12.7 mph - N/A   Overcast
10:22 AM 62.6 °F 55.4 °F 77% 29.98 in 10.0 mi SSW 10.4 mph - N/A   Scattered Clouds
10:33 AM 62.6 °F 55.4 °F 77% 29.98 in 10.0 mi SW 11.5 mph - N/A   Mostly Cloudy
10:54 AM 62.1 °F 55.9 °F 80% 29.98 in 10.0 mi SSW 9.2 mph - 0.00 in   Overcast
11:20 AM 62.6 °F 57.2 °F 82% 29.96 in 10.0 mi South 4.6 mph - N/A   Scattered Clouds
11:54 AM 64.0 °F 59.0 °F 84% 29.96 in 10.0 mi WSW 6.9 mph - N/A   Mostly Cloudy
12:04 PM 64.4 °F 59.0 °F 83% 29.96 in 10.0 mi WSW 6.9 mph - N/A   Mostly Cloudy
12:54 PM 64.9 °F 60.1 °F 84% 29.97 in 10.0 mi SW 11.5 mph - N/A   Overcast
1:19 PM 66.2 °F 60.8 °F 83% 29.97 in 10.0 mi SSW 12.7 mph 23.0 mph N/A   Scattered Clouds
1:54 PM 66.9 °F 60.1 °F 79% 29.93 in 10.0 mi SSW 13.8 mph - N/A   Partly Cloudy
2:22 PM 66.2 °F 60.8 °F 83% 29.95 in 10.0 mi SW 13.8 mph - 0.00 in Rain Light Rain
2:54 PM 64.0 °F 60.1 °F 87% 29.95 in 10.0 mi SSW 10.4 mph - 0.01 in   Overcast
3:19 PM 64.4 °F 59.0 °F 83% 29.94 in 10.0 mi SSW 6.9 mph - N/A   Overcast
3:54 PM 64.9 °F 57.9 °F 78% 29.93 in 10.0 mi SSW 10.4 mph - N/A   Mostly Cloudy
4:05 PM 66.2 °F 59.0 °F 78% 29.94 in 10.0 mi SSW 8.1 mph - N/A   Scattered Clouds
4:54 PM 66.9 °F 57.0 °F 70% 29.92 in 10.0 mi SSW 5.8 mph - N/A   Mostly Cloudy
5:54 PM 66.0 °F 59.0 °F 78% 29.94 in 10.0 mi SSW 9.2 mph - 0.00 in   Overcast
6:26 PM 64.4 °F 57.2 °F 77% 29.95 in 10.0 mi SSW 8.1 mph - N/A   Overcast
6:54 PM 64.4 °F 57.2 °F 77% 29.96 in 10.0 mi SSW 8.1 mph - N/A   Overcast
7:22 PM 64.4 °F 57.2 °F 77% 29.97 in 10.0 mi South 5.8 mph - N/A   Overcast
7:54 PM 63.0 °F 57.0 °F 81% 29.97 in 10.0 mi SSE 5.8 mph - N/A   Mostly Cloudy
8:04 PM 62.6 °F 57.2 °F 82% 29.98 in 10.0 mi SSE 8.1 mph - N/A   Scattered Clouds
8:41 PM 62.6 °F 57.2 °F 82% 29.98 in 10.0 mi SE 6.9 mph - N/A   Mostly Cloudy
8:49 PM 62.6 °F 57.2 °F 82% 29.98 in 10.0 mi SSE 6.9 mph - N/A   Mostly Cloudy
8:54 PM 62.1 °F 57.0 °F 84% 29.98 in 10.0 mi SE 6.9 mph - N/A   Mostly Cloudy
9:54 PM 61.0 °F 57.9 °F 90% 29.98 in 10.0 mi SE 5.8 mph - N/A   Mostly Cloudy
10:01 PM 60.8 °F 57.2 °F 88% 29.98 in 9.0 mi SSE 4.6 mph - N/A   Scattered Clouds
10:54 PM 62.1 °F 57.9 °F 86% 29.99 in 10.0 mi SE 5.8 mph - N/A   Overcast
11:54 PM 62.1 °F 57.9 °F 86% 29.98 in 10.0 mi ESE 5.8 mph - N/A   Overcast